DW2150 Weather Reports


Display with metric or nautical units.
time (UTC)temp
F
wind
direction
speed
MPH
gust
MPH
rain 1hr
in
rain 24hr
in
rain mn
in
humidity
%
barometer
mb
20260906212133 89 344 0.0 0.0 0.00 0.01 0.01 80 1012.5
20260906211630 89 348 0.0 0.0 0.00 0.01 0.01 79 1012.9
20260906211127 89 73 0.0 0.0 0.00 0.01 0.01 80 1012.9
20260906210624 89 57 0.0 0.0 0.00 0.01 0.01 79 1012.9
20260906210121 89 150 0.0 0.0 0.00 0.01 0.01 79 1012.9
20260906205611 89 155 0.0 0.0 0.00 0.01 0.01 81 1012.9
20260906205037 90 165 0.0 0.0 0.00 0.01 0.01 81 1012.9
20260906204533 90 292 0.0 0.0 0.00 0.01 0.01 80 1012.9
20260906204029 90 250 0.0 0.0 0.00 0.01 0.01 79 1012.9
20260906203454 89 250 0.0 0.0 0.00 0.01 0.01 80 1012.9
20260906202921 89 250 0.0 0.0 0.00 0.01 0.01 81 1012.9
20260906202417 89 253 0.0 0.0 0.00 0.01 0.01 80 1013.2
20260906201915 89 253 0.0 0.0 0.00 0.01 0.01 79 1012.9
20260906201412 89 253 0.0 0.0 0.00 0.01 0.01 81 1012.9
20260906200909 88 253 0.0 0.0 0.00 0.01 0.01 82 1013.2
20260906200335 88 253 0.0 0.0 0.00 0.01 0.01 84 1013.2
20260906195832 87 253 0.0 0.0 0.00 0.01 0.01 85 1013.2
20260906195258 87 253 0.0 0.0 0.00 0.01 0.01 83 1013.2
20260906194755 87 252 0.0 0.0 0.00 0.01 0.01 83 1013.5
20260906194251 88 252 0.0 0.0 0.00 0.01 0.01 83 1013.5
20260906193749 89 252 0.0 2.0 0.00 0.01 0.01 82 1013.5
20260906193246 89 252 0.0 2.0 0.00 0.01 0.01 83 1013.5
20260906192724 88 172 0.0 2.0 0.00 0.01 0.01 84 1013.5
20260906192221 87 258 1.0 1.0 0.00 0.01 0.01 83 1013.9
20260906191628 86 249 0.0 0.0 0.00 0.01 0.01 82 1013.9
20260906191125 86 252 0.0 0.0 0.01 0.01 0.01 83 1013.9
20260906190536 85 256 0.0 0.0 0.01 0.01 0.01 83 1013.9
20260906190014 85 272 0.0 0.0 0.01 0.01 0.01 85 1013.5
20260906185511 85 55 0.0 0.0 0.01 0.01 0.01 86 1013.9
20260906185008 85 55 0.0 0.0 0.01 0.01 0.01 87 1013.9
20260906184506 84 55 0.0 0.0 0.01 0.01 0.01 88 1013.9
20260906184003 83 55 0.0 0.0 0.01 0.01 0.01 90 1013.9
20260906183429 82 98 0.0 0.0 0.01 0.01 0.01 92 1013.9
20260906182925 81 100 0.0 0.0 0.01 0.01 0.01 93 1013.9
20260906182422 80 100 0.0 0.0 0.01 0.01 0.01 93 1013.9
20260906181919 80 100 0.0 0.0 0.01 0.01 0.01 92 1014.2
20260906181416 80 100 0.0 0.0 0.00 0.00 0.00 92 1014.2
20260906180912 80 100 0.0 0.0 0.00 0.00 0.00 92 1014.2
20260906180410 80 100 0.0 0.0 0.00 0.00 0.00 91 1014.2
20260906175804 80 100 0.0 0.0 0.00 0.00 0.00 91 1014.2
20260906174756 80 100 0.0 0.0 0.00 0.00 0.00 91 1014.6
20260906174252 80 235 0.0 0.0 0.00 0.00 0.00 91 1014.6
20260906173749 80 235 0.0 0.0 0.00 0.00 0.00 90 1014.6
20260906173246 80 235 0.0 0.0 0.00 0.00 0.00 90 1014.6
20260906172744 81 235 0.0 0.0 0.00 0.00 0.00 90 1014.6
20260906172241 81 235 0.0 0.0 0.00 0.00 0.00 90 1014.6
20260906171701 81 235 0.0 0.0 0.00 0.00 0.00 89 1014.6
20260906171055 81 235 0.0 0.0 0.00 0.00 0.00 88 1014.9
20260906170534 81 235 0.0 0.0 0.00 0.00 0.00 88 1014.9
20260906170031 81 235 0.0 0.0 0.00 0.00 0.00 88 1014.9
20260906165527 82 235 0.0 0.0 0.00 0.00 0.00 88 1014.9
20260906165025 82 235 0.0 0.0 0.00 0.00 0.00 88 1014.9
20260906164522 83 235 0.0 0.0 0.00 0.00 0.00 87 1014.9
20260906164019 83 235 0.0 1.0 0.00 0.00 0.00 87 1014.9
20260906163515 84 27 0.0 6.0 0.00 0.00 0.00 87 1014.9
20260906163012 84 277 0.0 7.0 0.00 0.01 0.00 87 1014.6
20260906162509 84 271 0.0 7.0 0.00 0.02 0.00 84 1014.6
20260906162005 85 249 3.0 7.0 0.00 0.05 0.00 82 1014.9
20260906161503 85 254 2.0 3.0 0.00 0.06 0.00 83 1014.9
20260906161000 86 252 0.0 2.0 0.00 0.08 0.00 82 1014.9
20260906160457 86 207 0.0 2.0 0.00 0.14 0.00 83 1014.9
20260906155954 87 58 0.0 2.0 0.00 0.19 0.00 81 1014.6
20260906155432 88 89 0.0 2.0 0.00 0.19 0.00 82 1014.6
20260906154929 89 250 0.0 3.0 0.00 0.19 0.00 84 1014.6
20260906154408 89 15 0.0 3.0 0.00 0.19 0.00 86 1014.6
20260906153905 89 36 0.0 3.0 0.00 0.19 0.00 85 1014.2
20260906153401 88 123 2.0 3.0 0.00 0.19 0.00 86 1014.2
20260906152858 88 85 2.0 3.0 0.00 0.19 0.00 86 1014.2
20260906152355 87 59 0.0 3.0 0.00 0.19 0.00 87 1014.2
20260906151821 87 67 0.0 3.0 0.00 0.19 0.00 87 1014.2
20260906151318 86 42 0.0 3.0 0.00 0.19 0.00 88 1014.2
20260906150815 86 327 3.0 3.0 0.00 0.19 0.00 87 1014.2
20260906150311 86 15 0.0 1.0 0.00 0.19 0.00 88 1014.2
20260906145750 85 85 0.0 1.0 0.00 0.19 0.00 87 1014.2
20260906145247 85 76 0.0 0.0 0.00 0.19 0.00 88 1014.2
20260906143933 84 22 0.0 0.0 0.00 0.19 0.00 90 1014.2
20260906143431 84 19 0.0 0.0 0.00 0.19 0.00 90 1014.2
20260906142928 83 248 0.0 0.0 0.00 0.19 0.00 90 1014.2
20260906142425 83 247 0.0 0.0 0.00 0.19 0.00 91 1014.2
20260906141922 83 247 0.0 0.0 0.00 0.19 0.00 91 1014.2
20260906141419 83 247 0.0 0.0 0.00 0.19 0.00 92 1014.2
20260906140916 82 247 0.0 0.0 0.00 0.19 0.00 93 1014.2
20260906140413 82 294 0.0 0.0 0.00 0.19 0.00 93 1014.2
20260906135911 82 31 0.0 0.0 0.00 0.19 0.00 94 1014.2
20260906135306 81 31 0.0 0.0 0.00 0.19 0.00 95 1014.2
20260906134802 81 31 0.0 0.0 0.00 0.19 0.00 95 1014.2
20260906134259 81 31 0.0 0.0 0.00 0.19 0.00 95 1014.2
20260906133756 81 31 0.0 0.0 0.00 0.19 0.00 95 1014.2
20260906133238 81 31 0.0 0.0 0.00 0.19 0.00 95 1014.2
20260906132735 80 31 0.0 0.0 0.00 0.19 0.00 96 1014.2
20260906132126 80 31 0.0 0.0 0.00 0.19 0.00 96 1013.9
20260906131624 79 31 0.0 0.0 0.00 0.19 0.00 96 1013.9
20260906131121 79 31 0.0 0.0 0.00 0.19 0.00 95 1013.9
20260906130617 79 31 0.0 0.0 0.00 0.19 0.00 95 1013.5
20260906130114 79 31 0.0 0.0 0.00 0.19 0.00 95 1013.5
20260906125544 79 31 0.0 0.0 0.00 0.19 0.00 95 1013.5
20260906125041 79 31 0.0 0.0 0.00 0.19 0.00 95 1013.5
20260906124523 79 31 0.0 0.0 0.00 0.19 0.00 95 1013.5
20260906124020 78 31 0.0 0.0 0.00 0.19 0.00 95 1013.5
20260906123427 78 31 0.0 0.0 0.00 0.19 0.00 95 1013.5
20260906122924 78 31 0.0 0.0 0.00 0.19 0.00 95 1013.2
20260906122421 78 31 0.0 0.0 0.00 0.19 0.00 95 1013.2
20260906121919 78 31 0.0 0.0 0.00 0.19 0.00 95 1013.2
20260906121416 78 31 0.0 0.0 0.00 0.19 0.00 95 1013.2
20260906120838 78 31 0.0 0.0 0.00 0.19 0.00 95 1013.2
20260906120304 78 31 0.0 0.0 0.00 0.19 0.00 95 1013.2
20260906115746 78 31 0.0 0.0 0.00 0.19 0.00 95 1013.2
20260906115242 78 31 0.0 0.0 0.00 0.19 0.00 94 1012.9
20260906114721 78 31 0.0 0.0 0.00 0.19 0.00 95 1012.9
20260906114218 78 31 0.0 0.0 0.00 0.19 0.00 95 1012.9
20260906113715 78 31 0.0 0.0 0.00 0.19 0.00 95 1012.9
20260906113141 78 31 0.0 0.0 0.00 0.19 0.00 95 1012.9
20260906112607 78 31 0.0 0.0 0.00 0.19 0.00 95 1012.9
20260906112105 78 31 0.0 0.0 0.00 0.19 0.00 94 1012.9
20260906111602 78 31 0.0 0.0 0.00 0.19 0.00 94 1012.9
20260906111040 78 31 0.0 0.0 0.00 0.19 0.00 94 1012.5
20260906110506 78 31 0.0 0.0 0.00 0.19 0.00 94 1012.5
20260906110003 78 31 0.0 0.0 0.00 0.19 0.00 94 1012.5
20260906105501 78 31 0.0 0.0 0.00 0.19 0.00 94 1012.5
20260906104957 78 31 0.0 0.0 0.00 0.19 0.00 94 1012.5
20260906104455 78 31 0.0 0.0 0.00 0.19 0.00 94 1012.5
20260906103952 78 31 0.0 0.0 0.00 0.19 0.00 94 1012.5
20260906103449 78 31 0.0 0.0 0.00 0.19 0.00 94 1012.5
20260906102947 78 31 0.0 0.0 0.00 0.19 0.00 94 1012.5
20260906102444 79 31 0.0 0.0 0.00 0.19 0.00 94 1012.5
20260906101941 79 31 0.0 0.0 0.00 0.19 0.00 94 1012.5
20260906101336 79 31 0.0 0.0 0.00 0.19 0.00 94 1012.5
20260906100833 79 31 0.0 0.0 0.00 0.19 0.00 94 1012.5
20260906100312 79 31 0.0 0.0 0.00 0.19 0.00 94 1012.5
20260906095809 79 31 0.0 0.0 0.00 0.19 0.00 94 1012.5
20260906095306 79 31 0.0 0.0 0.00 0.19 0.00 94 1012.2
20260906094802 79 31 0.0 0.0 0.00 0.19 0.00 94 1012.5
20260906094259 79 31 0.0 0.0 0.00 0.19 0.00 94 1012.5
20260906093755 79 31 0.0 0.0 0.00 0.19 0.00 94 1012.2
20260906093253 79 31 0.0 0.0 0.00 0.19 0.00 94 1012.2
20260906092750 79 31 0.0 0.0 0.00 0.19 0.00 94 1012.2
20260906092247 79 31 0.0 0.0 0.00 0.19 0.00 94 1012.2
20260906091744 79 31 0.0 0.0 0.00 0.19 0.00 94 1012.2
20260906091240 79 31 0.0 0.0 0.00 0.19 0.00 94 1012.2
20260906090737 79 31 0.0 0.0 0.00 0.19 0.00 94 1012.2
20260906090234 79 31 0.0 0.0 0.00 0.19 0.00 94 1012.2
20260906085732 79 31 0.0 0.0 0.00 0.19 0.00 94 1012.2
20260906085229 79 31 0.0 0.0 0.00 0.19 0.00 94 1012.2
20260906084726 79 31 0.0 0.0 0.00 0.19 0.00 94 1012.2
20260906084223 79 31 0.0 0.0 0.00 0.19 0.00 94 1012.2
20260906083702 79 31 0.0 0.0 0.00 0.19 0.00 94 1012.2
20260906083128 79 31 0.0 0.0 0.00 0.19 0.00 94 1012.2
20260906082436 79 31 0.0 0.0 0.00 0.19 0.00 93 1012.2
20260906081933 79 31 0.0 0.0 0.00 0.19 0.00 94 1012.2
20260906081430 79 31 0.0 0.0 0.00 0.19 0.00 93 1012.2
20260906080856 80 31 0.0 0.0 0.00 0.19 0.00 94 1012.2
20260906080322 80 31 0.0 0.0 0.00 0.19 0.00 94 1012.5
20260906075819 80 31 0.0 0.0 0.00 0.19 0.00 94 1012.5
20260906075316 80 31 0.0 0.0 0.00 0.19 0.00 94 1012.2
20260906074812 80 31 0.0 0.0 0.00 0.19 0.00 94 1012.2
20260906074309 80 31 0.0 0.0 0.00 0.19 0.00 94 1012.2
20260906073807 80 31 0.0 0.0 0.00 0.19 0.00 94 1012.2
20260906073304 80 31 0.0 0.0 0.00 0.19 0.00 93 1012.2
20260906072730 80 31 0.0 0.0 0.00 0.19 0.00 93 1012.5
20260906072227 80 31 0.0 0.0 0.00 0.19 0.00 94 1012.2
20260906071724 80 31 0.0 0.0 0.00 0.19 0.00 94 1012.2
20260906071221 80 31 0.0 0.0 0.00 0.19 0.00 94 1012.5
20260906070700 80 31 0.0 0.0 0.00 0.19 0.00 94 1012.5
20260906070138 79 31 0.0 0.0 0.00 0.19 0.00 93 1012.5
20260906065532 79 31 0.0 0.0 0.00 0.19 0.00 93 1012.5
20260906065030 79 31 0.0 0.0 0.00 0.19 0.00 93 1012.5
20260906064455 79 31 0.0 0.0 0.00 0.19 0.00 93 1012.5
20260906063952 79 31 0.0 0.0 0.00 0.19 0.00 93 1012.5
20260906063448 79 31 0.0 0.0 0.00 0.19 0.00 93 1012.5
20260906062914 79 31 0.0 0.0 0.00 0.19 0.00 93 1012.5
20260906062411 79 31 0.0 0.0 0.00 0.19 0.00 93 1012.5
20260906061909 79 31 0.0 0.0 0.00 0.19 0.00 93 1012.5
20260906061406 79 31 0.0 0.0 0.00 0.19 0.00 93 1012.5
20260906060814 79 31 0.0 0.0 0.00 0.19 0.00 93 1012.5
20260906060240 79 31 0.0 0.0 0.00 0.19 0.00 93 1012.5
20260906055719 79 31 0.0 0.0 0.00 0.19 0.00 93 1012.5
20260906055215 79 31 0.0 0.0 0.00 0.19 0.00 93 1012.5
20260906054711 79 31 0.0 0.0 0.00 0.19 0.00 93 1012.5
20260906054207 80 31 0.0 0.0 0.00 0.19 0.00 93 1012.5
20260906053704 80 31 0.0 0.0 0.00 0.19 0.00 93 1012.5
20260906053202 80 31 0.0 0.0 0.00 0.19 0.00 93 1012.5
20260906052659 80 31 0.0 0.0 0.00 0.19 0.00 93 1012.5
20260906052124 80 31 0.0 0.0 0.00 0.19 0.19 93 1012.5
20260906051518 80 31 0.0 0.0 0.00 0.19 0.19 93 1012.5
20260906050842 80 31 0.0 0.0 0.00 0.19 0.19 93 1012.5
20260906050321 80 31 0.0 0.0 0.00 0.19 0.19 93 1012.5
20260906045818 80 31 0.0 0.0 0.00 0.19 0.19 93 1012.5
20260906045315 80 31 0.0 0.0 0.00 0.19 0.19 93 1012.5
20260906044710 80 31 0.0 0.0 0.00 0.19 0.19 93 1012.5
20260906044207 80 31 0.0 0.0 0.00 0.19 0.19 93 1012.5
20260906043702 80 31 0.0 0.0 0.00 0.19 0.19 93 1012.5
20260906043200 80 31 0.0 0.0 0.00 0.19 0.19 93 1012.5
20260906042657 80 31 0.0 0.0 0.00 0.19 0.19 93 1012.5
20260906042154 80 31 0.0 0.0 0.00 0.19 0.19 93 1012.5
20260906041651 80 31 0.0 0.0 0.00 0.19 0.19 93 1012.5
20260906041130 81 31 0.0 0.0 0.00 0.19 0.19 93 1012.5
20260906040626 81 31 0.0 0.0 0.00 0.19 0.19 93 1012.5
20260906040021 81 31 0.0 0.0 0.00 0.19 0.19 93 1012.9
20260906035503 81 31 0.0 0.0 0.00 0.19 0.19 93 1012.9
20260906035000 81 31 0.0 0.0 0.00 0.19 0.19 92 1012.9
20260906034457 81 31 0.0 0.0 0.00 0.19 0.19 92 1012.9
20260906033954 81 31 0.0 0.0 0.00 0.19 0.19 92 1012.9
20260906033451 81 31 0.0 0.0 0.00 0.19 0.19 92 1012.9
20260906032948 81 31 0.0 0.0 0.00 0.19 0.19 92 1012.9
20260906032414 81 31 0.0 0.0 0.00 0.19 0.19 92 1012.9
20260906031911 81 31 0.0 0.0 0.00 0.19 0.19 92 1012.9
20260906031408 81 31 0.0 0.0 0.00 0.19 0.19 92 1012.9
20260906030906 81 31 0.0 0.0 0.00 0.19 0.19 92 1012.9
20260906030332 81 31 0.0 0.0 0.00 0.19 0.19 91 1012.9
20260906025324 81 31 0.0 0.0 0.00 0.19 0.19 91 1012.5
20260906024718 81 31 0.0 0.0 0.00 0.19 0.19 91 1012.5
20260906024216 81 31 0.0 0.0 0.00 0.19 0.19 91 1012.5
20260906023626 81 31 0.0 0.0 0.00 0.19 0.19 91 1012.5
20260906023104 81 31 0.0 0.0 0.00 0.19 0.19 91 1012.5
20260906022529 81 31 0.0 0.0 0.00 0.19 0.19 91 1012.2
20260906022026 81 31 0.0 0.0 0.00 0.19 0.19 91 1012.2
20260906021507 81 31 0.0 0.0 0.00 0.19 0.19 90 1012.2
20260906021004 81 31 0.0 0.0 0.00 0.19 0.19 90 1011.9
20260906020501 82 31 0.0 0.0 0.00 0.19 0.19 90 1011.9
20260906015927 82 31 0.0 1.0 0.00 0.19 0.19 90 1011.9
20260906015424 82 31 0.0 1.0 0.00 0.19 0.19 90 1011.9
20260906014826 82 31 0.0 1.0 0.00 0.19 0.19 90 1011.9
20260906014322 82 31 0.0 1.0 0.00 0.19 0.19 90 1011.9
20260906013820 82 31 0.0 0.0 0.00 0.19 0.19 90 1011.9
20260906013317 82 31 0.0 0.0 0.00 0.19 0.19 89 1011.5
20260906012814 82 31 0.0 0.0 0.00 0.19 0.19 89 1011.9
20260906012311 82 31 0.0 0.0 0.00 0.19 0.19 89 1011.5
20260906011808 83 31 0.0 0.0 0.00 0.19 0.19 89 1011.5
20260906011305 83 31 0.0 0.0 0.00 0.19 0.19 89 1011.5
20260906010801 83 31 0.0 0.0 0.00 0.19 0.19 89 1011.5
20260906010227 83 31 0.0 1.0 0.00 0.19 0.19 89 1011.5
20260906005647 83 31 0.0 1.0 0.00 0.19 0.19 88 1011.5
20260906005144 84 31 0.0 1.0 0.00 0.19 0.19 88 1011.9
20260906004641 84 30 0.0 1.0 0.00 0.19 0.19 88 1011.9
20260906004138 84 30 0.0 1.0 0.00 0.19 0.19 88 1011.9
20260906003636 84 30 0.0 1.0 0.00 0.19 0.19 88 1011.9
20260906003114 84 30 0.0 1.0 0.00 0.19 0.19 87 1011.9
20260906002611 84 30 0.0 3.0 0.00 0.19 0.19 87 1011.9
20260906002108 84 30 0.0 3.0 0.00 0.19 0.19 87 1011.9
20260906001605 85 30 0.0 3.0 0.00 0.19 0.19 87 1011.9
20260906001102 85 57 1.0 3.0 0.00 0.19 0.19 87 1012.2
20260906000527 85 5 2.0 3.0 0.00 0.19 0.19 87 1012.2
20260906000024 85 10 1.0 3.0 0.00 0.19 0.19 87 1012.2
20260905235522 85 21 1.0 3.0 0.00 0.19 0.19 87 1012.2
20260905235019 85 26 1.0 3.0 0.00 0.19 0.19 87 1012.2
20260905234516 85 27 1.0 3.0 0.00 0.19 0.19 87 1012.2
20260905234012 85 355 0.0 3.0 0.00 0.19 0.19 87 1012.2
20260905233509 85 27 1.0 3.0 0.00 0.19 0.19 86 1012.2
20260905232950 86 23 1.0 3.0 0.00 0.19 0.19 86 1012.2
20260905232415 86 360 0.0 3.0 0.00 0.19 0.19 87 1011.9
20260905231913 86 0 2.0 4.0 0.00 0.19 0.19 87 1011.9
20260905231410 86 61 1.0 5.0 0.00 0.19 0.19 86 1011.9
20260905230835 86 32 1.0 5.0 0.00 0.19 0.19 86 1011.9
20260905230314 86 69 1.0 5.0 0.00 0.19 0.19 86 1011.9
20260905225811 86 71 1.0 5.0 0.00 0.19 0.19 85 1011.9
20260905225206 86 0 1.0 3.0 0.00 0.19 0.19 86 1011.9
20260905224703 86 65 1.0 3.0 0.00 0.19 0.19 85 1011.9
20260905224200 86 39 1.0 3.0 0.00 0.19 0.19 85 1012.2
20260905223657 86 76 1.0 3.0 0.00 0.19 0.19 85 1011.9
20260905223153 87 323 1.0 3.0 0.00 0.19 0.19 86 1011.9
20260905222650 87 49 0.0 3.0 0.00 0.19 0.19 86 1011.9
20260905222147 87 85 1.0 3.0 0.00 0.19 0.19 85 1011.9
20260905221644 87 22 1.0 3.0 0.00 0.19 0.19 85 1011.9
20260905221140 87 34 1.0 4.0 0.00 0.19 0.19 84 1011.9
20260905220637 88 58 1.0 5.0 0.00 0.19 0.19 83 1011.9
20260905220135 88 42 0.0 5.0 0.00 0.19 0.19 84 1011.9
20260905215631 88 9 2.0 5.0 0.00 0.19 0.19 82 1011.9
20260905215128 88 47 1.0 5.0 0.00 0.19 0.19 83 1011.9
20260905214555 89 56 2.0 5.0 0.00 0.19 0.19 80 1011.9
20260905214052 89 69 2.0 5.0 0.00 0.19 0.19 80 1011.9
20260905213549 89 68 2.0 5.0 0.00 0.19 0.19 79 1011.9
20260905213046 89 52 2.0 3.0 0.00 0.19 0.19 78 1011.9